Regional Weather Roundup
Issued by NWS Kansas City/Pleasant Hill, MO

Home | Current Version | Previous Version | Text Only | Print | Product List | Glossary On
Versions: 1 2 3 4 5 6 7 8 9 10 11 12 13 14 15 16 17 18 19 20 21 22 23 24 25 26 27 28 29 30 31 32 33 34 35 36 37 38 39 40 41 42 43 44 45 46 47 48 49 50
000
ASUS43 KEAX 010810
RWREAX

WEATHER ROUNDUP FOR EASTERN KANSAS AND NORTHWEST MISSOURI
NATIONAL WEATHER SERVICE KANSAS CITY/PLEASANT HILL MO
300 AM CDT MON SEP 01 2014

KSZ040-057-103>105-MOZ028-029-037-043-010900-
...KANSAS CITY METROPOLITAN AREA...

CITY           SKY/WX    TMP DP  RH WIND       PRES   REMARKS
K.C. INTL      TSTM      66  64  93 S15       29.89R
K.C. DOWNTOWN  RAIN      69  66  90 SW13      29.90R FOG
LEES SUMMIT    NOT AVBL
OLATHE - IXD   LGT RAIN  66  65  96 CALM      29.92R
OLATHE - OJC   LGT RAIN  65  65 100 S5        29.92R
LAWRENCE       LGT RAIN N/A N/A N/A SE10      29.88F

$$

MOZ001>008-011>017-020>025-030>033-038>040-044>046-053-054-010900-
...NORTHERN AND CENTRAL MISSOURI...

CITY           SKY/WX    TMP DP  RH WIND       PRES   REMARKS
ST. JOSEPH     RAIN      67  65  93 S15       29.82R
MOSBY          TSTM      66  66 100 S6        29.84F
WHITEMAN AFB   LGT RAIN  66  66 100 W2        29.87F
CLINTON        CLOUDY    68  66  94 SE6       29.86F
SEDALIA        LGT RAIN  68  66  93 E3        29.87F
WARSAW         NOT AVBL
MARSHALL       CLOUDY    68  68 100 CALM      29.87F
CHILLICOTHE      N/A     67  65  93 S14G22    29.83F
MOBERLY        CLOUDY    68  63  83 SW8       29.86F
KIRKSVILLE     LGT RAIN  69  67  93 SW12      29.82F

$$

MOZ041-047>049-056>058-063>065-088>090-097-010900-
...EASTERN AND SOUTHERN MISSOURI...

CITY           SKY/WX    TMP DP  RH WIND       PRES   REMARKS
ST. LOUIS INTL PTCLDY    78  71  79 S10       29.89F
SPIRIT OF STL  PTCLDY    76  71  85 SW5       29.87F
COLUMBIA       CLOUDY    69  66  90 W7        29.89F
JEFFERSON CITY CLOUDY    71  64  78 NW3       29.88F
ROLLA          CLOUDY    74  70  87 S10       29.88F
LEBANON        MOCLDY    73  70  88 S7        29.91F
OSAGE BEACH    CLOUDY    73  61  64 NW8       29.91S
SPRINGFIELD    CLOUDY    77  70  79 NE6       29.91F
BRANSON        CLEAR     73  70  88 CALM      29.90F
NEVADA         MOCLDY    68  64  88 E6        29.88R
JOPLIN         CLOUDY    80  69  69 SE8       29.87F
WEST PLAINS    MOCLDY    73  70  90 CALM      29.96R

$$

IAZ060-094-KSZ022-034>040-054-083-096-NEZ052-066-093-010900-
...KANSAS...SOUTHEAST NEBRASKA AND IOWA...

CITY           SKY/WX    TMP DP  RH WIND       PRES   REMARKS
TOPEKA         TSTM      68  67  96 SE12      29.85F
MANHATTAN      CLOUDY    68  32  26 S13       29.79F
EMPORIA        LGT RAIN  63  63 100 S5        29.90R
CHANUTE        TSTM      63  62  97 N10       29.94F FOG
WICHITA        MOCLDY    66  62  87 E17       29.84R
OMAHA          CLOUDY    69  64  84 S10       29.70F
LINCOLN        CLOUDY    68  65  90 SW7       29.73S
FALLS CITY     LGT RAIN  68  65  90 S22G29    29.72F
LAMONI         CLOUDY    67  64  90 SW12      29.80R
DES MOINES     CLOUDY    69  64  84 S8        29.73R

$$



USA.gov is the U.S. government's official web portal to all federal, state and local government web resources and services.